Hovedside
METAR-TAF:

METAR-TAF

Lufthavner :

Stokmarknes lufthavn. Skagen

Stokmarknes, Norge

breddegrad: 68-35N, lengdegrad: 015-01E, høyde over havet: 0 m

Gjeldene værobservasjon

Denne rapporten ble laget for 54 minutter siden, klokken 10:00 UTC
Vind 20 kt fra Sør
Temperatur 11°C
Luftfuktighet 76%
Trykk 986 hPa
Sikt 10 km eller mer
Få skyer i en høyde av 2500 ft
Brutte skyer i en høyde av 3500 ft
regnbyger i nærheten

METAR: ENSK 211000Z 19020KT 9999 VCSH FEW025 BKN035 11/07 Q0986

Tid: 12:54 (10:54 UTC)


TAF: fraværende

Værobservasjoner og værvarsel for over 4000 flyplasser (METAR- og TAF-rapporter).

Tilgjengelige stasjoner er representert av de røde og gule prikkene på kartet.

Hold musepekeren over prikken for å se navnet på stasjonen.

Klikk så for å se værobservasjoner og -varsler.

For å forandre kartet kan du klikke på den grønne knappen med svart kryss for å zoome inn, på den grønne knappen med strek for å zoome ut, eller på de grønne pilene for å se tilstøtende kart.


METAR-TAF: